IK3ZGB Weather Reports


Display with metric or nautical units.
time (UTC)temp
F
wind
direction
speed
MPH
gust
MPH
rain 1hr
in
rain 24hr
in
rain mn
in
humidity
%
barometer
mb
20260903082043 87 0.0 0.0 0.00 0.00 0.00 56 1016.8
20260903081041 90 0.0 0.0 0.00 0.00 0.00 56 1016.7
20260903080042 89 0.0 0.0 0.00 0.00 0.00 56 1016.9
20260903075042 88 0.0 0.0 0.00 0.00 0.00 58 1017.1
20260903074040 87 0.0 0.0 0.00 0.00 0.00 58 1017.3
20260903073042 87 0.0 0.0 0.00 0.00 0.00 59 1017.2
20260903072042 86 0.0 0.0 0.00 0.00 0.00 59 1017.2
20260903071040 86 0.0 0.0 0.00 0.00 0.00 60 1017.6
20260903070042 84 0.0 0.0 0.00 0.00 0.00 61 1017.5
20260903065042 83 0.0 0.0 0.00 0.00 0.00 60 1017.5
20260903064042 83 0.0 0.0 0.00 0.00 0.00 61 1017.5
20260903063041 82 0.0 0.0 0.00 0.00 0.00 61 1017.6
20260903062042 81 0.0 0.0 0.00 0.00 0.00 62 1017.6
20260903061040 82 0.0 0.0 0.00 0.00 0.00 62 1017.7
20260903060041 79 0.0 0.0 0.00 0.00 0.00 64 1017.5
20260903055041 84 0.0 0.0 0.00 0.00 0.00 65 1017.4
20260903054042 78 0.0 0.0 0.00 0.00 0.00 67 1017.2
20260903053041 75 0.0 0.0 0.00 0.00 0.00 68 1017.3
20260903052042 75 0.0 0.0 0.00 0.00 0.00 68 1017.1
20260903051040 74 0.0 0.0 0.00 0.00 0.00 68 1017.1
20260903050042 74 0.0 0.0 0.00 0.00 0.00 68 1016.8
20260903045042 74 0.0 0.0 0.00 0.00 0.00 68 1016.7
20260903044040 74 0.0 0.0 0.00 0.00 0.00 68 1016.5
20260903043042 74 0.0 0.0 0.00 0.00 0.00 68 1016.2
20260903042042 74 0.0 0.0 0.00 0.00 0.00 69 1016.4
20260903041040 74 0.0 0.0 0.00 0.00 0.00 69 1016.4
20260903040042 74 0.0 0.0 0.00 0.00 0.00 69 1016.4
20260903035042 74 0.0 0.0 0.00 0.00 0.00 69 1016.6
20260903034040 74 0.0 0.0 0.00 0.00 0.00 68 1016.6
20260903033042 74 0.0 0.0 0.00 0.00 0.00 69 1016.4
20260903032042 74 0.0 0.0 0.00 0.00 0.00 69 1016.5
20260903031041 74 0.0 0.0 0.00 0.00 0.00 69 1016.5
20260903030041 74 0.0 0.0 0.00 0.00 0.00 69 1016.5
20260903025042 74 0.0 0.0 0.00 0.00 0.00 70 1016.5
20260903024042 74 0.0 0.0 0.00 0.00 0.00 71 1016.7
20260903023042 74 0.0 0.0 0.00 0.00 0.00 71 1016.4
20260903022042 74 0.0 0.0 0.00 0.00 0.00 71 1016.4
20260903021041 74 0.0 0.0 0.00 0.00 0.00 70 1016.6
20260903020042 74 0.0 0.0 0.00 0.00 0.00 70 1016.8
20260903015041 75 0.0 0.0 0.00 0.00 0.00 70 1016.5
20260903014041 75 0.0 0.0 0.00 0.00 0.00 70 1016.4
20260903013042 75 0.0 0.0 0.00 0.00 0.00 68 1016.5
20260903012042 76 0.0 0.0 0.00 0.00 0.00 67 1016.5
20260903011041 76 0.0 0.0 0.00 0.00 0.00 67 1016.6
20260903010042 76 0.0 0.0 0.00 0.00 0.00 67 1016.1
20260903005041 76 0.0 0.0 0.00 0.00 0.00 67 1016.4
20260903004041 76 0.0 0.0 0.00 0.00 0.00 67 1016.2
20260903003041 76 0.0 0.0 0.00 0.00 0.00 68 1016.2
20260903002041 76 0.0 0.0 0.00 0.00 0.00 67 1016.1
20260903001041 77 0.0 0.0 0.00 0.00 0.00 67 1016.3
20260903000042 77 0.0 0.0 0.00 0.00 0.00 67 1016.5
20260902235042 77 0.0 0.0 0.00 0.00 0.00 67 1016.2
20260902234041 77 0.0 0.0 0.00 0.00 0.00 67 1016.1
20260902233041 76 0.0 0.0 0.00 0.00 0.00 68 1016.0
20260902232041 77 0.0 0.0 0.00 0.00 0.00 67 1016.3
20260902231042 77 0.0 0.0 0.00 0.00 0.00 67 1016.4
20260902230042 77 0.0 0.0 0.00 0.00 0.00 67 1016.2
20260902225041 77 0.0 0.0 0.00 0.00 0.00 67 1016.1
20260902224040 77 0.0 0.0 0.00 0.00 0.00 67 1016.0
20260902223042 78 0.0 0.0 0.00 0.00 0.00 67 1015.9
20260902222042 78 0.0 0.0 0.00 0.00 0.00 66 1015.7
20260902221040 79 0.0 0.0 0.00 0.00 0.00 66 1015.9
20260902220040 79 0.0 0.0 0.00 0.00 0.00 65 1015.7
20260902215041 79 0.0 0.0 0.00 0.00 0.00 65 1015.5
20260902214041 79 0.0 0.0 0.00 0.00 0.00 65 1015.7
20260902213042 79 0.0 0.0 0.00 0.00 0.00 65 1015.5
20260902212042 79 0.0 0.0 0.00 0.00 0.00 65 1015.4
20260902211041 79 0.0 0.0 0.00 0.00 0.00 65 1015.5
20260902210041 80 0.0 0.0 0.00 0.00 0.00 65 1015.4
20260902205042 79 0.0 0.0 0.00 0.00 0.00 65 1015.2
20260902204041 80 0.0 0.0 0.00 0.00 0.00 65 1015.1
20260902203041 80 0.0 0.0 0.00 0.00 0.00 65 1015.1
20260902202041 80 0.0 0.0 0.00 0.00 0.00 65 1014.8
20260902201040 80 0.0 0.0 0.00 0.00 0.00 64 1014.8
20260902200041 81 0.0 0.0 0.00 0.00 0.00 63 1014.9
20260902195042 81 0.0 0.0 0.00 0.00 0.00 63 1014.8
20260902194041 81 0.0 0.0 0.00 0.00 0.00 63 1014.7
20260902193042 80 0.0 0.0 0.00 0.00 0.00 64 1014.4
20260902192041 81 0.0 0.0 0.00 0.00 0.00 63 1014.4
20260902191040 82 0.0 0.0 0.00 0.00 0.00 62 1014.0
20260902190043 82 0.0 0.0 0.00 0.00 0.00 62 1014.0
20260902185042 82 0.0 0.0 0.00 0.00 0.00 62 1013.7
20260902184042 83 0.0 0.0 0.00 0.00 0.00 61 1013.3
20260902183042 83 0.0 0.0 0.00 0.00 0.00 61 1013.5
20260902182041 84 0.0 0.0 0.00 0.00 0.00 61 1013.3
20260902181041 84 0.0 0.0 0.00 0.00 0.00 60 1013.1
20260902180042 84 0.0 0.0 0.00 0.00 0.00 60 1012.9
20260902175041 85 0.0 0.0 0.00 0.00 0.00 58 1013.1
20260902174041 85 0.0 0.0 0.00 0.00 0.00 58 1012.9
20260902173042 86 0.0 0.0 0.00 0.00 0.00 57 1012.8
20260902172041 86 0.0 0.0 0.00 0.00 0.00 56 1012.7
20260902171042 86 0.0 0.0 0.00 0.00 0.00 56 1012.6
20260902170042 87 0.0 0.0 0.00 0.00 0.00 56 1012.5
20260902165041 87 0.0 0.0 0.00 0.00 0.00 55 1012.7
20260902164042 87 0.0 0.0 0.00 0.00 0.00 55 1012.7
20260902163040 87 0.0 0.0 0.00 0.00 0.00 55 1012.4
20260902162041 88 0.0 0.0 0.00 0.00 0.00 55 1012.3
20260902161040 88 0.0 0.0 0.00 0.00 0.00 54 1012.4
20260902160041 88 0.0 0.0 0.00 0.00 0.00 54 1012.5
20260902155041 88 0.0 0.0 0.00 0.00 0.00 54 1012.6
20260902154042 88 0.0 0.0 0.00 0.00 0.00 54 1012.3
20260902153043 88 0.0 0.0 0.00 0.00 0.00 53 1012.8
20260902152041 88 0.0 0.0 0.00 0.00 0.00 54 1012.5
20260902151040 88 0.0 0.0 0.00 0.00 0.00 54 1012.8
20260902150041 88 0.0 0.0 0.00 0.00 0.00 53 1012.8
20260902145042 89 0.0 0.0 0.00 0.00 0.00 54 1013.0
20260902144041 88 0.0 0.0 0.00 0.00 0.00 53 1012.6
20260902143042 89 0.0 0.0 0.00 0.00 0.00 53 1013.2
20260902142041 89 0.0 0.0 0.00 0.00 0.00 53 1013.3
20260902141041 89 0.0 0.0 0.00 0.00 0.00 53 1013.5
20260902140041 89 0.0 0.0 0.00 0.00 0.00 53 1013.6
20260902135040 89 0.0 0.0 0.00 0.00 0.00 53 1013.7
20260902134041 89 0.0 0.0 0.00 0.00 0.00 53 1013.8
20260902133041 90 0.0 0.0 0.00 0.00 0.00 54 1013.7
20260902132041 89 0.0 0.0 0.00 0.00 0.00 54 1014.0
20260902131041 89 0.0 0.0 0.00 0.00 0.00 54 1014.0
20260902130042 89 0.0 0.0 0.00 0.00 0.00 53 1013.8
20260902125042 88 0.0 0.0 0.00 0.00 0.00 53 1014.1
20260902124040 90 0.0 0.0 0.00 0.00 0.00 54 1014.0
20260902123042 89 0.0 0.0 0.00 0.00 0.00 53 1014.4
20260902122043 89 0.0 0.0 0.00 0.00 0.00 54 1014.5
20260902121040 89 0.0 0.0 0.00 0.00 0.00 52 1014.5
20260902120041 89 0.0 0.0 0.00 0.00 0.00 53 1014.7
20260902115042 90 0.0 0.0 0.00 0.00 0.00 52 1014.6
20260902114040 89 0.0 0.0 0.00 0.00 0.00 53 1014.9
20260902113042 89 0.0 0.0 0.00 0.00 0.00 52 1015.0
20260902112041 90 0.0 0.0 0.00 0.00 0.00 52 1014.8
20260902111040 89 0.0 0.0 0.00 0.00 0.00 53 1015.2
20260902110042 90 0.0 0.0 0.00 0.00 0.00 53 1015.2
20260902105041 89 0.0 0.0 0.00 0.00 0.00 53 1015.2
20260902104041 90 0.0 0.0 0.00 0.00 0.00 53 1015.3
20260902103042 91 0.0 0.0 0.00 0.00 0.00 54 1015.7
20260902102041 91 0.0 0.0 0.00 0.00 0.00 54 1015.5
20260902101041 89 0.0 0.0 0.00 0.00 0.00 53 1015.6
20260902100042 89 0.0 0.0 0.00 0.00 0.00 53 1015.7
20260902095042 91 0.0 0.0 0.00 0.00 0.00 53 1015.9
20260902094040 90 0.0 0.0 0.00 0.00 0.00 52 1016.0
20260902093041 91 0.0 0.0 0.00 0.00 0.00 53 1016.1
20260902092042 90 0.0 0.0 0.00 0.00 0.00 52 1016.1
20260902091041 90 0.0 0.0 0.00 0.00 0.00 51 1016.3
20260902090041 91 0.0 0.0 0.00 0.00 0.00 52 1016.2
20260902085041 90 0.0 0.0 0.00 0.00 0.00 51 1016.2
20260902084040 90 0.0 0.0 0.00 0.00 0.00 52 1016.4
20260902083041 89 0.0 0.0 0.00 0.00 0.00 53 1016.4